This is the latest recevied weather packets stored in our database for station/object K6TTR. If no packets are shown the sender has not sent any weather packets the latest 10 day(s).
| Time | Temp. | Humidity | Pressure | Rain* | Wind** | Luminosity | Snow |
|---|---|---|---|---|---|---|---|
| 1777672124 | 21.11° C | 26% | 1018 hPa | 0 mm | - | 853 W/m² | - |
| 1777671830 | 21.11° C | 25% | 1017.3 hPa | 0 mm | - | 738 W/m² | - |
| 1777671219 | 21.67° C | 27% | 1017.4 hPa | 0 mm | - | 647 W/m² | - |
| 1777670022 | 21.11° C | 26% | 1017.6 hPa | 0 mm | - | 888 W/m² | - |
| 1777669727 | 21.11° C | 27% | 1017.6 hPa | 0 mm | - | 867 W/m² | - |
| 1777669119 | 21.11° C | 28% | 1017.7 hPa | 0 mm | - | 958 W/m² | - |
| 1777667920 | 21.11° C | 26% | 1018 hPa | 0 mm | - | 979 W/m² | - |
| 1777665523 | 20° C | 27% | 1018.5 hPa | 0 mm | - | 824 W/m² | - |
| 1777664018 | 19.44° C | 27% | 1018.8 hPa | 0 mm | - | 954 W/m² | - |
| 1777663722 | 19.44° C | 27% | 1018.9 hPa | 0 mm | - | 954 W/m² | - |
| 1777663427 | 19.44° C | 27% | 1018.8 hPa | 0 mm | - | 909 W/m² | - |
| 1777663129 | 19.44° C | 27% | 1018.8 hPa | 0 mm | - | 891 W/m² | - |
| 1777661926 | 19.44° C | 29% | 1019 hPa | 0 mm | - | 861 W/m² | - |
| 1777660726 | 19.44° C | 30% | 1019.3 hPa | 0 mm | - | 895 W/m² | - |
| 1777660114 | 18.89° C | 30% | 1019.3 hPa | 0 mm | - | 911 W/m² | - |
| 1777659817 | 18.89° C | 29% | 1019.3 hPa | 0 mm | - | 909 W/m² | - |
| 1777659521 | 18.33° C | 30% | 1019.3 hPa | 0 mm | - | 858 W/m² | - |
| 1777659228 | 18.33° C | 30% | 1019.3 hPa | 0 mm | - | 861 W/m² | - |
| 1777658913 | 18.33° C | 32% | 1019.3 hPa | 0 mm | - | 872 W/m² | - |
| 1777658617 | 18.33° C | 31% | 1019.4 hPa | 0 mm | - | 853 W/m² | - |
| 1777656535 | 17.22° C | 33% | 1019.4 hPa | 0 mm | - | 86 W/m² | - |
| 1777656215 | 16.67° C | 34% | 1019.5 hPa | 0 mm | - | 100 W/m² | - |
| 1777655919 | 16.67° C | 34% | 1019.5 hPa | 0 mm | - | 90 W/m² | - |
| 1777654713 | 16.11° C | 36% | 1019.6 hPa | 0 mm | - | 84 W/m² | - |
| 1777653823 | 15.56° C | 43% | 1019.7 hPa | 0 mm | - | 167 W/m² | - |
* Rain latest hour (hover to see other rain measurements)
** Current wind speed in m/s (hover to see current wind gust speed)